Weather History for KFFX - April, 2013

Change the Weather History Date:

Wednesday, April 17, 2013

  Actual Average (KMKG) Record (KMKG)
Temperature  
Mean Temperature 42 °F 47 °F  
Max Temperature 48 °F 57 °F 81 °F (1977)
Min Temperature 36 °F 38 °F 22 °F (1948)
Degree Days  
Heating Degree Days 23 18  
Month to date heating degree days 357  
Since 1 July heating degree days 6019  
Cooling Degree Days 0 0  
Month to date cooling degree days 0  
Year to date cooling degree days 0  
Moisture  
Dew Point 33 °F    
Average Humidity 72    
Maximum Humidity 95    
Minimum Humidity 50    
Precipitation  
Precipitation 0.00 in 0.10 in 1.05 in (1969)
Month to date precipitation 1.65  
Year to date precipitation 7.76  
Snow  
Snow 0.00 in 0.10 in 0.60 in (1956)
Month to date snowfall 2.1  
Since 1 July snowfall 93.5  
Snow Depth -    
Sea Level Pressure  
Sea Level Pressure 30.22 in    
Wind  
Wind Speed 8 mph (NE)    
Max Wind Speed 16 mph    
Max Gust Speed 25 mph    
Visibility 10 miles    
Events Rain    
T = Trace of Precipitation, MM = Missing Value Source: NWS Daily Summary

Daily Weather History Graph

Daily Weather History Graph

Search for Another Location

Airport or City:

Trip Planner

Search our weather history database for the weather conditions in past years. The results will help you decide how hot, cold, wet, or windy it might be!

Date:

Astronomy

Apr. 17, 2013 Rise Set
Actual Time 6:57 AM EDT 8:29 PM EDT
Civil Twilight 6:27 AM EDT 8:59 PM EDT
Nautical Twilight 5:51 AM EDT 9:36 PM EDT
Astronomical Twilight 5:13 AM EDT 10:15 PM EDT
Moon 12:07 PM EDT (4/17) 2:10 AM EDT (4/17)
Length of Visible Light 14h 31m
Length of Day
13h 31m
Waxing Crescent, 42% of the Moon is Illuminated
Apr 17
Waxing Crescent
Apr 18
First Quarter
Apr 25
Full
May 2
Last Quarter
May 9
New

Hourly Weather History & Observations

Time (EDT) Temp. Windchill Dew Point Humidity Pressure Visibility Wind Dir Wind Speed Gust Speed Precip Events Conditions
12:14 AM 40.3 °F 37.1 °F 29.8 °F 66% 30.27 in 10.0 mi North 4.6 mph - N/A   Scattered Clouds
12:35 AM 40.1 °F 36.1 °F 29.3 °F 65% 30.28 in 10.0 mi North 5.8 mph - N/A   Scattered Clouds
12:55 AM 39.9 °F 36.7 °F 29.5 °F 66% 30.28 in 10.0 mi North 4.6 mph - N/A   Scattered Clouds
1:15 AM 40.3 °F - 29.3 °F 65% 30.28 in 10.0 mi Calm Calm - N/A   Clear
1:35 AM 40.6 °F 36.7 °F 28.8 °F 63% 30.30 in 10.0 mi North 5.8 mph - N/A   Clear
1:55 AM 41.0 °F 39.0 °F 28.4 °F 61% 30.31 in 10.0 mi North 3.5 mph - N/A   Clear
2:14 AM 41.0 °F 39.0 °F 28.2 °F 60% 30.31 in 10.0 mi North 3.5 mph - N/A   Clear
2:35 AM 41.0 °F 37.1 °F 28.2 °F 60% 30.30 in 10.0 mi North 5.8 mph - N/A   Clear
2:55 AM 41.2 °F 38.2 °F 28.2 °F 60% 30.31 in 10.0 mi North 4.6 mph - N/A   Clear
3:15 AM 41.0 °F 37.1 °F 28.0 °F 60% 30.31 in 10.0 mi NNE 5.8 mph - N/A   Clear
3:35 AM 41.0 °F 37.1 °F 27.9 °F 60% 30.32 in 10.0 mi NE 5.8 mph - N/A   Clear
3:55 AM 41.0 °F 35.8 °F 28.2 °F 60% 30.32 in 10.0 mi NE 8.1 mph - N/A   Mostly Cloudy
4:15 AM 40.5 °F 35.1 °F 28.2 °F 62% 30.33 in 10.0 mi NE 8.1 mph - N/A   Overcast
4:35 AM 39.7 °F 34.9 °F 29.1 °F 66% 30.34 in 10.0 mi NE 6.9 mph - N/A   Mostly Cloudy
4:55 AM 39.4 °F 33.8 °F 28.9 °F 66% 30.34 in 10.0 mi NE 8.1 mph - N/A   Scattered Clouds
5:15 AM 39.0 °F 33.4 °F 28.8 °F 67% 30.34 in 10.0 mi ENE 8.1 mph - N/A   Clear
5:35 AM 38.5 °F 34.1 °F 29.1 °F 69% 30.33 in 10.0 mi NE 5.8 mph - N/A   Clear
5:54 AM 37.8 °F 32.5 °F 29.1 °F 71% 30.32 in 10.0 mi NE 6.9 mph - N/A   Clear
6:15 AM 37.6 °F 31.6 °F 29.1 °F 72% 30.32 in 10.0 mi NE 8.1 mph - N/A   Scattered Clouds
6:35 AM 37.2 °F 31.2 °F 28.8 °F 71% 30.32 in 10.0 mi NE 8.1 mph - N/A   Scattered Clouds
6:55 AM 37.2 °F 31.2 °F 28.8 °F 71% 30.33 in 10.0 mi NE 8.1 mph - N/A   Clear
7:14 AM 36.9 °F 30.1 °F 28.9 °F 73% 30.32 in 10.0 mi NE 9.2 mph - N/A   Clear
7:35 AM 37.8 °F 31.3 °F 29.7 °F 73% 30.32 in 10.0 mi NE 9.2 mph - N/A   Clear
7:55 AM 37.8 °F 31.8 °F 29.5 °F 72% 30.33 in 10.0 mi ENE 8.1 mph - N/A   Clear
8:14 AM 38.8 °F 32.6 °F 30.2 °F 71% 30.33 in 10.0 mi ENE 9.2 mph - N/A   Clear
8:35 AM 40.1 °F 32.7 °F 30.9 °F 70% 30.32 in 10.0 mi ENE 12.7 mph 17.3 mph N/A   Clear
8:55 AM 41.0 °F 35.8 °F 30.7 °F 67% 30.33 in 10.0 mi ENE 8.1 mph 16.1 mph N/A   Clear
9:15 AM 42.1 °F 37.7 °F 30.9 °F 65% 30.32 in 10.0 mi ENE 6.9 mph 17.3 mph N/A   Clear
9:35 AM 43.2 °F 37.0 °F 30.2 °F 60% 30.32 in 10.0 mi ENE 11.5 mph 17.3 mph N/A   Clear
10:15 AM 45.3 °F 40.1 °F 30.9 °F 57% 30.31 in 10.0 mi ENE 10.4 mph - N/A   Clear
10:35 AM 46.0 °F 41.0 °F 30.9 °F 56% 30.31 in 10.0 mi NE 10.4 mph - N/A   Clear
10:55 AM 45.7 °F 41.5 °F 30.4 °F 55% 30.32 in 10.0 mi ENE 8.1 mph - N/A   Clear
11:15 AM 46.9 °F - 31.1 °F 54% 30.30 in 10.0 mi ENE 10.4 mph - N/A   Clear
11:34 AM 47.3 °F - 30.4 °F 52% 30.29 in 10.0 mi NE 15.0 mph - N/A   Clear
11:55 AM 46.9 °F - 30.7 °F 53% 30.31 in 10.0 mi ENE 9.2 mph - N/A   Mostly Cloudy
12:15 PM 48.2 °F - 30.4 °F 50% 30.30 in 10.0 mi East 8.1 mph - N/A   Scattered Clouds
12:35 PM 47.5 °F - 31.1 °F 53% 30.26 in 10.0 mi ENE 13.8 mph - N/A   Scattered Clouds
12:55 PM 48.2 °F - 31.5 °F 52% 30.23 in 10.0 mi ENE 11.5 mph 20.7 mph N/A   Mostly Cloudy
1:15 PM 47.3 °F - 31.8 °F 55% 30.19 in 10.0 mi ENE 15.0 mph 23.0 mph N/A   Mostly Cloudy
1:35 PM 48.6 °F - 32.0 °F 53% 30.20 in 10.0 mi ENE 10.4 mph - N/A   Clear
1:55 PM 48.6 °F - 31.6 °F 52% 30.20 in 10.0 mi ENE 9.2 mph - N/A   Scattered Clouds
2:14 PM 48.6 °F - 31.1 °F 51% 30.22 in 10.0 mi East 11.5 mph - N/A   Mostly Cloudy
2:35 PM 47.5 °F - 31.8 °F 55% 30.24 in 10.0 mi East 11.5 mph - N/A Rain Light Rain
2:55 PM 45.5 °F 39.6 °F 34.7 °F 66% 30.21 in 10.0 mi ENE 12.7 mph - N/A Rain Rain
3:15 PM 44.6 °F 40.7 °F 35.4 °F 70% 30.20 in 10.0 mi ENE 6.9 mph 16.1 mph N/A Rain Rain
3:35 PM 43.9 °F 38.8 °F 36.9 °F 76% 30.20 in 10.0 mi ENE 9.2 mph - N/A Rain Rain
3:54 PM 43.3 °F 36.8 °F 37.6 °F 80% 30.15 in 10.0 mi ENE 12.7 mph 18.4 mph N/A Rain Light Rain
4:34 PM 42.8 °F 37.5 °F 38.5 °F 85% 30.19 in 10.0 mi NE 9.2 mph - N/A Rain Rain
4:55 PM 41.9 °F 34.6 °F 38.3 °F 87% 30.14 in 7.0 mi NE 13.8 mph 25.3 mph N/A Rain Rain
5:15 PM 41.5 °F 35.9 °F 38.3 °F 88% 30.16 in 7.0 mi ENE 9.2 mph - N/A Rain Rain
5:35 PM 41.0 °F 34.7 °F 38.3 °F 90% 30.15 in 3.0 mi NE 10.4 mph - N/A Rain Heavy Rain
5:52 PM 40.5 °F 33.6 °F 38.5 °F 93% 30.14 in 4.0 mi ENE 11.5 mph 18.4 mph N/A Rain Rain
6:15 PM 40.8 °F 35.0 °F 39.2 °F 94% 30.13 in 10.0 mi ENE 9.2 mph - N/A Rain Light Rain
6:35 PM 41.0 °F 32.8 °F 39.6 °F 95% 30.08 in 7.0 mi ENE 16.1 mph 19.6 mph N/A Rain Light Rain
6:55 PM 41.2 °F 34.5 °F 39.7 °F 95% 30.08 in 10.0 mi ENE 11.5 mph 23.0 mph N/A Rain Light Rain
7:15 PM 41.5 °F 34.2 °F 39.9 °F 94% 30.07 in 10.0 mi ENE 13.8 mph 23.0 mph N/A   Overcast
7:35 PM 41.9 °F 35.0 °F 40.1 °F 93% 30.08 in 10.0 mi ENE 12.7 mph 19.6 mph N/A   Overcast
7:55 PM 41.9 °F 35.4 °F 39.7 °F 92% 30.08 in 10.0 mi ENE 11.5 mph 19.6 mph N/A   Overcast
8:14 PM 41.7 °F 34.1 °F 39.7 °F 93% 30.07 in 10.0 mi ENE 15.0 mph 20.7 mph N/A   Overcast
8:35 PM 41.9 °F 35.0 °F 39.6 °F 91% 30.06 in 10.0 mi ENE 12.7 mph 17.3 mph N/A   Overcast
8:55 PM 41.7 °F 34.8 °F 39.6 °F 92% 30.06 in 10.0 mi ENE 12.7 mph 19.6 mph N/A   Overcast
9:15 PM 41.5 °F 36.4 °F 39.6 °F 93% 30.04 in 10.0 mi ENE 8.1 mph 17.3 mph N/A   Overcast
9:35 PM 41.5 °F 35.0 °F 39.7 °F 93% 30.01 in 10.0 mi East 11.5 mph 20.7 mph N/A   Overcast
9:55 PM 41.5 °F 33.8 °F 39.7 °F 93% 30.00 in 10.0 mi ENE 15.0 mph 23.0 mph N/A   Overcast
10:15 PM 41.4 °F 34.3 °F 39.6 °F 93% 30.00 in 10.0 mi ENE 12.7 mph 20.7 mph N/A   Overcast
10:55 PM 41.9 °F 34.6 °F 40.1 °F 93% 29.98 in 10.0 mi East 13.8 mph 21.9 mph N/A   Overcast
11:15 PM 42.4 °F 35.0 °F 40.1 °F 91% 29.98 in 10.0 mi East 15.0 mph 21.9 mph N/A   Mostly Cloudy
11:35 PM 42.8 °F 35.8 °F 40.1 °F 90% 29.96 in 10.0 mi East 13.8 mph 21.9 mph N/A   Overcast
11:55 PM 42.8 °F 36.6 °F 40.3 °F 91% 29.95 in 10.0 mi ENE 11.5 mph 19.6 mph N/A   Overcast